Regional Weather Roundup
Issued by NWS State College, PA

Home | Current Version | Previous Version | Graphics & Text | Print | Product List | Glossary Off
Versions: 1 2 3 4 5 6 7 8 9 10 11 12 13 14 15 16 17 18 19 20 21 22 23 24 25 26 27 28 29 30 31 32 33 34 35 36 37 38 39 40 41 42 43 44 45 46 47 48 49 50

000
ASUS41 KCTP 281210
RWRCTP

REGIONAL WEATHER ROUNDUP
NATIONAL WEATHER SERVICE STATE COLLEGE PA
800 AM EDT THU MAY 28 2015

Note: "fair" indicates few or no clouds below 12,000 feet with no
significant weather and/or obstructions to visibility.

* = STATION THAT DOES NOT REPORT PRECIPITATION /E.G. RAIN...SNOW...ETC/
    THUNDER OR FOG.

PAZ002>004-007>009-013>016-020>023-029>032-281300-
WESTERN PENNSYLVANIA

CITY           SKY/WX    TMP DP  RH WIND       PRES   REMARKS
ERIE           SUNNY     62  54  74 CALM      30.23R
MEADVILLE      MOSUNNY   61  56  83 NE3       30.24R
FRANKLIN*      PTSUNNY   63  57  82 NW6       30.25R
NEW CASTLE     FAIR      64  64 100 CALM      30.25R
BEAVER COUNTY  CLOUDY    63  61  94 CALM      30.24R
BUTLER*        PTSUNNY   61  61 100 CALM      30.25R
PITTSBURGH INT PTSUNNY   68  62  81 NW7       30.23R
PITTSBURGH     MOSUNNY   68  58  70 N6        30.22R
INDIANA*       PTSUNNY   64  61  88 CALM      30.27R
LATROBE        MOSUNNY   68  64  88 CALM      30.24R
WASHINGTON CO* MOSUNNY   66  61  82 W3        30.25R
$$

PAZ004>006-010>012-017>019-024>028-033>037-041-042-045-046-049>053-281300-
CENTRAL PENNSYLVANIA

CITY           SKY/WX    TMP DP  RH WIND       PRES   REMARKS
BRADFORD       MOSUNNY   61  57  87 W8        30.23R
DUBOIS         CLOUDY    63  60  90 W6        30.23R
CLEARFIELD     PTSUNNY   66  59  78 NW10      30.23R
JOHNSTOWN      PTSUNNY   66  58  75 W9        30.24R
ALTOONA        PTSUNNY   71  59  65 W6        30.22R
STATE COLLEGE  MOSUNNY   66  61  82 W5        30.20S
WILLIAMSPORT   MOSUNNY   67  63  87 S3        30.16R
SELINSGROVE    PTSUNNY   71  67  87 CALM      30.18R
FT INDIANTOWN  CLOUDY    67  67 100 CALM      30.17R FOG
CAPITAL CITY   MOSUNNY   71  67  87 CALM      30.17R
HARRISBURG     HAZE      72  67  84 CALM      30.16R VSB 1
YORK           MOSUNNY   71  69  93 CALM      30.17S FOG
$$

PAZ038>040-043-044-047-048-054-055-060>062-067>071-281300-
EASTERN PENNSYLVANIA

CITY           SKY/WX    TMP DP  RH WIND       PRES   REMARKS
SCRANTON       MOSUNNY   72  65  78 W5        30.17R
MOUNT POCONO   SUNNY     68  63  84 W7        30.20R
ALLENTOWN      CLOUDY    69  67  93 NW3       30.16R FOG
QUAKERTOWN*    CLOUDY    72  72 100 SW3       30.17F
READING        CLOUDY    73  69  87 SW5       30.15S FOG
LANCASTER      CLOUDY    70  68  93 SW6       30.17R FOG
COATESVILLE    PTSUNNY   70  70 100 SW5       30.19R FOG
POTTSTOWN      PTSUNNY   73  71  93 SW6       30.19R
BLUE BELL      CLOUDY    73  70  88 SW5       30.16S
DOYLESTOWN     PTSUNNY   71  69  93 S5        30.16S
WILLOW GROVE   NOT AVBL
NORTH PHILA    CLOUDY    73  66  78 SW3       30.19R
PHILADELPHIA   CLOUDY    73  69  87 S6        30.17S
$$


USA.gov is the U.S. government's official web portal to all federal, state and local government web resources and services.